CAPE
629 537 570 435 180 396 449 500 495 432 802 891 934 823 594 544 402 291 175 118 52 61
1076 1029 829 710 330 363 513 442 453 533 755 899 1126 1170 1094 1002 809 625 433 287 132 133
1696 1694 1390 1044 1102 892 773 925 968 508 589 840 1165 1380 1219 1143 1027 693 739 584 418 380
1295 1440 1864 1890 1315 1185 1299 1187 1062 953 865 895 890 1149 1388 1312 1237 910 827 575 565 592
1566 1196 1289 1711 2117 1871 1459 1191 1207 1158 1388 1223 1106 1146 1500 1147 1413 1028 965 745 616 703
2110 1977 1743 1483 1476 1745 1863 1704 1392 1159 1269 1481 1621 1592 1600 1570 1268 1256 1156 1105 1003 953
2614 2474 2411 2354 2133 2040 1788 1885 1828 1666 1794 1639 1669 1673 1674 1667 1450 1287 1293 1269 1221 1162
2795 2839 2774 2692 2592 2438 2283 2064 2006 2065 1775 2129 2000 1817 1643 1639 1655 1594 1526 1413 1319 1261
2833 2804 2861 2853 2799 2613 2514 2315 2030 1942 2110 1967 2297 2307 2035 2029 1993 1793 1682 1623 1445 1421
1941 2226 2776 2836 2843 2631 2650 2549 2304 2287 2250 2142 2147 2542 2255 1607 2236 2111 1833 1702 1568 1447
2711 2764 1971 2295 2600 2666 2526 2549 2433 2412 2393 2374 2246 2451 2435 1922 1857 2315 2018 1712 1548 1484
1681 2067 2428 2660 2074 2044 2382 2380 2391 2416 2406 2415 2384 2292 2040 1239 1701 2393 2191 1907 1649 1488
969 1076 1200 1613 2525 2930 2141 2276 2295 2510 2465 2453 2519 2025 1685 1117 1907 2178 2037 1799 1666 1498
680 574 690 1389 1532 1912 3160 2839 2441 2627 2462 2479 2142 1404 921 549 1768 2043 1603 1471 1259 1098
CIN
-286 -260 -238 -268 -321 -258 -228 -225 -187 -200 -137 -146 -141 -152 -161 -141 -160 -167 -173 -179 -225 -199
-283 -229 -238 -245 -306 -296 -250 -237 -251 -225 -151 -132 -134 -121 -125 -107 -121 -120 -145 -158 -194 -176
-223 -221 -198 -208 -193 -254 -254 -211 -198 -272 -235 -201 -155 -131 -135 -115 -129 -138 -130 -136 -134 -139
-235 -258 -190 -163 -176 -195 -195 -216 -211 -239 -236 -217 -208 -170 -132 -130 -133 -153 -138 -157 -141 -117
-229 -314 -270 -193 -137 -160 -175 -215 -187 -198 -171 -193 -203 -189 -139 -163 -146 -164 -127 -151 -153 -112
-199 -227 -229 -253 -223 -159 -152 -152 -193 -229 -206 -177 -153 -146 -149 -143 -161 -136 -119 -100 -93 -91
-173 -206 -183 -167 -186 -181 -212 -173 -160 -181 -157 -189 -178 -161 -143 -127 -136 -134 -108 -97 -94 -90
-177 -174 -158 -145 -148 -158 -189 -225 -200 -172 -204 -152 -149 -150 -165 -139 -115 -104 -99 -100 -94 -92
-151 -157 -159 -146 -157 -158 -179 -216 -244 -223 -177 -178 -109 -85 -101 -85 -79 -105 -101 -85 -101 -95
-189 -185 -165 -164 -158 -185 -192 -187 -206 -215 -187 -184 -176 -88 -91 -178 -82 -102 -105 -109 -105 -101
-105 -90 -238 -198 -153 -175 -206 -205 -212 -204 -213 -181 -182 -129 -98 -149 -169 -105 -125 -141 -140 -123
-213 -165 -109 -106 -187 -220 -197 -223 -215 -205 -206 -194 -194 -191 -181 -300 -186 -87 -76 -111 -125 -116
-372 -350 -295 -198 -55 -45 -173 -219 -239 -192 -194 -227 -202 -244 -258 -364 -179 -113 -107 -151 -158 -144
-403 -457 -433 -253 -234 -182 -24 -68 -150 -156 -161 -141 -179 -300 -404 -471 -130 -90 -138 -155 -170 -174
Wind_Speed
11 8 7 7 5 6 6 7 7 7 9 10 8 8 7 6 6 6 7 9 8 6
10 10 9 8 8 7 8 6 6 7 10 11 10 10 8 7 9 6 8 8 8 7
11 10 8 6 8 9 8 7 7 10 10 9 8 8 9 8 7 7 6 6 7 7
10 9 8 8 9 9 7 8 9 9 9 11 10 9 9 10 8 7 6 5 6 6
10 7 7 10 12 7 9 8 10 8 9 9 10 9 10 9 8 8 7 6 5 6
9 9 11 12 12 12 10 10 8 8 10 9 8 9 10 9 7 7 7 6 6 6
11 11 11 11 11 12 11 11 11 11 11 9 9 9 8 8 7 6 6 7 7 7
8 8 9 11 11 11 11 11 10 10 8 8 8 7 8 8 9 8 7 6 6 6
5 7 10 11 11 10 11 11 9 10 10 8 8 10 13 10 8 8 7 6 7 6
6 8 11 12 11 12 13 9 11 10 9 9 9 12 14 14 6 6 7 8 6 5
4 7 6 7 10 12 10 12 11 10 10 9 8 13 14 13 8 7 6 7 7 7
3 5 5 6 7 8 8 8 10 9 10 11 10 15 14 9 6 5 6 6 6 6
3 2 5 6 6 7 7 9 7 11 11 16 14 14 16 13 7 8 6 5 7 12
5 6 6 5 5 5 6 7 7 10 9 8 6 5 11 13 5 5 4 5 4 3
Wind_Direction
192 194 196 189 186 199 203 211 205 203 220 224 221 215 204 212 218 205 216 220 221 225
190 194 199 197 191 200 202 210 202 208 223 229 222 221 213 219 225 207 218 225 224 220
207 199 201 183 207 205 205 202 189 211 224 233 232 222 221 225 227 204 219 217 213 227
222 206 191 198 214 216 209 200 207 203 209 223 228 230 228 231 221 209 226 209 219 230
200 195 195 216 222 207 217 213 217 205 206 212 217 214 220 225 215 207 217 219 216 225
200 191 211 218 227 226 219 220 219 217 218 219 214 209 217 218 219 209 213 216 214 221
203 205 216 226 221 220 216 222 226 227 230 211 209 212 212 211 215 214 214 211 212 219
212 213 216 222 227 227 216 218 219 219 219 214 207 213 208 205 214 216 214 210 216 226
214 215 219 227 226 221 224 220 207 217 222 216 221 214 204 201 210 212 206 206 215 224
257 246 230 229 219 219 220 219 218 214 208 214 211 204 207 211 213 199 204 203 201 201
353 297 255 240 237 231 219 212 211 219 207 206 216 201 207 213 220 218 205 209 202 198
257 285 308 287 253 248 232 221 216 209 206 198 216 202 205 185 204 203 221 210 199 199
300 285 291 271 266 256 235 229 209 221 207 204 208 194 196 187 194 193 210 206 196 198
303 311 300 299 311 306 265 237 222 226 216 225 223 201 200 189 198 214 208 209 215 227